Weather History for Aberdeen / Amory, MS

Change the Weather History Date:

Thursday, May 23, 2013

  Actual Average (KCBM) Record (KCBM)
Temperature  
Mean Temperature 74 °F -  
Max Temperature 89 °F 81 °F 95 °F (2011)
Min Temperature 60 °F 61 °F 37 °F (1999)
Cooling Degree Days 10    
Growing Degree Days 24 (Base 50)    
Moisture  
Dew Point 57 °F    
Average Humidity 55    
Maximum Humidity 61    
Minimum Humidity 52    
Precipitation  
Precipitation 0.00 in - - ()
Sea Level Pressure  
Sea Level Pressure 30.02 in    
Wind  
Wind Speed 1 mph (NNW)    
Max Wind Speed 10 mph    
Max Gust Speed -    
Visibility 7 miles    
Events      
Averages and records for this station are not official NWS values.
T = Trace of Precipitation, MM = Missing Value Source: NWS Daily Summary

Daily Weather History Graph

Daily Weather History Graph

Search for Another Location

Airport:

Trip Planner

Search our weather history database for the weather conditions in past years. The results will help you decide how hot, cold, wet, or windy it might be!

Date:

Astronomy

May. 23, 2013 Rise Set
Actual Time 5:47 AM CDT 7:54 PM CDT
Civil Twilight 5:19 AM CDT 8:22 PM CDT
Nautical Twilight 4:45 AM CDT 8:56 PM CDT
Astronomical Twilight 4:08 AM CDT 9:33 PM CDT
Moon 6:29 PM CDT (5/23) 4:27 AM CDT (5/23)
Length of Visible Light 15h 02m
Length of Day
14h 06m
Waxing Gibbous, 97% of the Moon is Illuminated
May 23
Waxing Gibbous
May 24
Full
May 31
Last Quarter
Jun 8
New
Jun 16
First Quarter

Hourly Weather History & Observations

Time (CDT) Temp. Heat Index Dew Point Humidity Pressure Visibility Wind Dir Wind Speed Gust Speed Precip Events Conditions
12:15 AM 62.6 °F - 46.4 °F 55% 29.95 in 0.2 mi Calm Calm - N/A   Haze
12:35 AM 62.6 °F - 46.4 °F 55% 29.95 in 0.2 mi Calm Calm - N/A   Haze
12:55 AM 62.6 °F - 46.4 °F 55% 29.95 in 1.2 mi Calm Calm - N/A   Haze
1:15 AM 62.6 °F - 46.4 °F 55% 29.95 in 0.2 mi Calm Calm - N/A   Haze
1:35 AM 62.6 °F - 46.4 °F 55% 29.95 in 0.5 mi Calm Calm - N/A   Haze
1:55 AM 62.6 °F - 44.6 °F 52% 29.95 in 0.5 mi Calm Calm - N/A   Haze
2:15 AM 62.6 °F - 44.6 °F 52% 29.95 in 2.5 mi Calm Calm - N/A   Haze
2:35 AM 60.8 °F - 44.6 °F 55% 29.95 in 3.0 mi Calm Calm - N/A   Haze
2:55 AM 60.8 °F - 44.6 °F 55% 29.96 in 3.0 mi Calm Calm - N/A   Haze
3:15 AM 60.8 °F - 44.6 °F 55% 29.96 in 1.2 mi Calm Calm - N/A   Haze
3:35 AM 60.8 °F - 44.6 °F 55% 29.96 in 2.5 mi Calm Calm - N/A   Haze
3:55 AM 60.8 °F - 44.6 °F 55% 29.97 in 1.2 mi Calm Calm - N/A   Haze
4:15 AM 60.8 °F - 44.6 °F 55% 29.97 in 2.5 mi Calm Calm - N/A   Haze
4:35 AM 60.8 °F - 44.6 °F 55% 29.98 in 2.5 mi Calm Calm - N/A   Haze
4:55 AM 60.8 °F - 44.6 °F 55% 29.98 in 0.8 mi Calm Calm - N/A   Haze
5:15 AM 60.8 °F - 44.6 °F 55% 29.98 in 4.0 mi Calm Calm - N/A   Haze
5:35 AM 60.8 °F - 44.6 °F 55% 29.99 in 2.0 mi Calm Calm - N/A   Haze
5:55 AM 60.8 °F - 44.6 °F 55% 30.00 in 5.0 mi Calm Calm - N/A   Haze
6:15 AM 60.8 °F - 44.6 °F 55% 30.01 in 1.8 mi Calm Calm - N/A   Haze
6:35 AM 62.6 °F - 46.4 °F 55% 30.01 in 5.0 mi Calm Calm - N/A   Haze
6:55 AM 64.4 °F - 48.2 °F 56% 30.02 in 5.0 mi Calm Calm - N/A   Haze
7:15 AM 66.2 °F - 51.8 °F 60% 30.02 in 7.0 mi Calm Calm - N/A   Clear
7:35 AM 69.8 °F - 53.6 °F 56% 30.02 in 8.0 mi Calm Calm - N/A   Clear
7:55 AM 71.6 °F - 53.6 °F 53% 30.03 in 7.0 mi Calm Calm - N/A   Clear
8:15 AM 73.4 °F - 55.4 °F 53% 30.03 in 10.0 mi North - - N/A   Clear
8:35 AM 73.4 °F - 57.2 °F 57% 30.04 in 9.0 mi North - - N/A   Clear
8:55 AM 75.2 °F - 57.2 °F 53% 30.04 in 8.0 mi North - - N/A   Clear
9:15 AM 75.2 °F - 60.8 °F 61% 30.04 in 8.0 mi North - - N/A   Clear
9:35 AM 78.8 °F - 60.8 °F 54% 30.04 in 9.0 mi North - - N/A   Clear
9:55 AM 78.8 °F - 62.6 °F 57% 30.04 in 9.0 mi North - - N/A   Clear
10:15 AM 80.6 °F 81.8 °F 62.6 °F 54% 30.03 in 10.0 mi North - - N/A   Clear
10:35 AM 82.4 °F 83.9 °F 64.4 °F 54% 30.04 in 9.0 mi North - - N/A   Clear
10:55 AM 82.4 °F 83.9 °F 64.4 °F 54% 30.05 in 9.0 mi North - - N/A   Clear
11:15 AM 82.4 °F 84.6 °F 66.2 °F 58% 30.05 in 9.0 mi North - - N/A   Clear
11:35 AM 84.2 °F 86.6 °F 66.2 °F 55% 30.05 in 10.0 mi North - - N/A   Clear
11:55 AM 84.2 °F 87.3 °F 68.0 °F 58% 30.05 in 9.0 mi North - - N/A   Partly Cloudy
12:15 PM 86.0 °F 89.4 °F 68.0 °F 55% 30.05 in 8.0 mi North - - N/A   Clear
12:35 PM 86.0 °F 89.4 °F 68.0 °F 55% 30.05 in 9.0 mi North - - N/A   Partly Cloudy
12:55 PM 86.0 °F 90.4 °F 69.8 °F 58% 30.04 in 10.0 mi NW 6.9 mph - N/A   Clear
1:15 PM 87.8 °F 92.6 °F 69.8 °F 55% 30.04 in 9.0 mi North - - N/A   Partly Cloudy
1:35 PM 87.8 °F 92.6 °F 69.8 °F 55% 30.04 in 8.0 mi North - - N/A   Partly Cloudy
1:55 PM 87.8 °F 92.6 °F 69.8 °F 55% 30.04 in 10.0 mi NNW 8.1 mph - N/A   Unknown
2:15 PM 87.8 °F 92.6 °F 69.8 °F 55% 30.03 in 9.0 mi NNW 10.4 mph - N/A   Clear
2:35 PM 89.6 °F 96.2 °F 71.6 °F 55% 30.03 in 9.0 mi North - - N/A   Clear
2:55 PM 89.6 °F 96.2 °F 71.6 °F 55% 30.03 in 10.0 mi North - - N/A   Clear
3:15 PM 89.6 °F 96.2 °F 71.6 °F 55% 30.02 in 9.0 mi North - - N/A   Clear
3:35 PM 89.6 °F 96.2 °F 71.6 °F 55% 30.02 in 9.0 mi North - - N/A   Clear
3:55 PM 87.8 °F 92.6 °F 69.8 °F 55% 30.02 in 9.0 mi North - - N/A   Clear
4:15 PM 86.0 °F 89.4 °F 68.0 °F 55% 30.02 in 9.0 mi North - - N/A   Clear
4:35 PM 84.2 °F 86.6 °F 66.2 °F 55% 30.01 in 9.0 mi North - - N/A   Clear
4:55 PM 84.2 °F 86.6 °F 66.2 °F 55% 30.01 in 9.0 mi North - - N/A   Clear
5:15 PM 84.2 °F 86.6 °F 66.2 °F 55% 30.02 in 9.0 mi NNW 6.9 mph - N/A   Clear
5:35 PM 84.2 °F 86.6 °F 66.2 °F 55% 30.02 in 10.0 mi NNW 9.2 mph - N/A   Clear
5:55 PM 84.2 °F 86.6 °F 66.2 °F 55% 30.02 in 10.0 mi North - - N/A   Clear
6:15 PM 82.4 °F 84.6 °F 66.2 °F 58% 30.02 in 9.0 mi North - - N/A   Clear
6:35 PM 82.4 °F 83.9 °F 64.4 °F 54% 30.02 in 10.0 mi North - - N/A   Clear
6:55 PM 82.4 °F 83.9 °F 64.4 °F 54% 30.02 in 10.0 mi North - - N/A   Clear
7:15 PM 80.6 °F 81.8 °F 62.6 °F 54% 30.02 in 9.0 mi North - - N/A   Clear
7:35 PM 78.8 °F - 60.8 °F 54% 30.02 in 9.0 mi North - - N/A   Clear
7:55 PM 75.2 °F - 57.2 °F 53% 30.02 in 9.0 mi Calm Calm - N/A   Clear
8:15 PM 71.6 °F - 55.4 °F 57% 30.02 in 10.0 mi Calm Calm - N/A   Clear
8:35 PM 69.8 °F - 51.8 °F 53% 30.03 in 10.0 mi Calm Calm - N/A   Clear
8:55 PM 66.2 °F - 51.8 °F 60% 30.03 in 10.0 mi Calm Calm - N/A   Clear
9:15 PM 66.2 °F - 50.0 °F 56% 30.04 in 10.0 mi Calm Calm - N/A   Clear
9:35 PM 66.2 °F - 50.0 °F 56% 30.05 in 10.0 mi Calm Calm - N/A   Clear
9:55 PM 66.2 °F - 48.2 °F 52% 30.06 in 10.0 mi Calm Calm - N/A   Clear
10:15 PM 66.2 °F - 48.2 °F 52% 30.07 in 10.0 mi Calm Calm - N/A   Clear
10:35 PM 64.4 °F - 48.2 °F 56% 30.07 in 9.0 mi Calm Calm - N/A   Clear
10:55 PM 64.4 °F - 48.2 °F 56% 30.07 in 10.0 mi Calm Calm - N/A   Clear
11:15 PM 64.4 °F - 48.2 °F 56% 30.07 in 10.0 mi Calm Calm - N/A   Partly Cloudy
11:35 PM 64.4 °F - 48.2 °F 56% 30.08 in 7.0 mi Calm Calm - N/A   Scattered Clouds
11:55 PM 64.4 °F - 48.2 °F 56% 30.09 in 9.0 mi North - - N/A   Clear